CAPE
196 208 85 28 26 45 15 0 0 0 0 0 0 14 3 59 163 217 271 330 358 486 618 817 1024 1093 1066 934 1024 1113 1100 1192
287 184 72 101 6 47 3 0 0 0 2 0 0 34 6 72 206 254 317 333 401 482 779 1115 1325 1301 1232 1151 1066 1210 1192 1266
238 155 123 97 64 6 7 7 1 0 0 0 0 39 7 22 189 242 318 303 461 639 1154 1280 1319 1716 1878 1710 1368 1423 1563 1593
43 0 40 63 7 0 3 2 16 0 0 14 1 37 48 20 121 189 238 288 497 823 1151 1336 1318 1346 1699 2011 1950 1834 1974 1906
153 99 22 12 1 0 1 11 1 2 19 32 14 17 47 57 78 108 177 299 472 648 1042 1173 1277 1322 1505 1768 1910 2010 2053 2140
0 72 81 17 36 3 14 1 13 3 23 42 38 67 40 52 90 100 224 295 482 602 846 1071 1241 1419 1659 1863 1859 1816 1908 1942
0 0 21 29 0 0 1 1 2 0 22 39 38 69 85 58 90 87 300 357 455 554 770 937 1092 1607 1861 1993 2004 1901 1888 1841
0 0 3 15 5 0 0 16 32 27 18 42 27 73 74 41 85 101 294 377 492 526 755 934 1486 1770 1915 1999 2067 2133 2238 2196
0 0 133 39 15 10 21 31 30 0 25 10 27 69 66 30 58 91 236 367 490 557 718 1364 1575 1660 1808 1885 1961 2003 2083 2038
0 76 113 0 0 0 0 36 21 0 14 37 29 48 43 31 17 94 232 347 449 724 1208 1591 1535 1528 1616 1752 1838 1985 2086 2089
0 0 0 0 14 41 13 13 51 14 1 12 29 21 8 0 19 92 200 447 821 1378 1757 1574 1468 1473 1542 1757 2026 2132 2118 2159
0 0 0 0 3 94 28 22 16 0 18 0 6 2 11 0 0 36 438 1122 1666 2025 1679 1508 1451 1522 1754 2034 2189 2244 2322 1900
0 0 0 0 0 180 16 9 0 0 1 1 1 82 35 0 19 663 1407 1921 2185 1776 1580 1544 1509 1782 2160 2264 2277 2284 1385 65
0 0 0 0 11 5 0 20 3 0 23 4 5 39 35 0 481 1332 2042 2339 2012 1686 1523 1615 1752 2138 2277 2243 2158 1496 20 0
0 0 0 0 0 21 24 2 0 18 8 18 12 19 28 447 1110 1637 2227 2244 1943 1657 1692 1903 2124 2306 2311 2212 1788 478 0 0
0 0 0 0 0 0 0 0 0 4 55 19 45 9 84 972 1392 1829 2283 2148 1918 1732 1771 2090 2269 2344 2313 2089 1210 0 0 0
0 0 0 0 0 0 0 0 0 17 27 28 41 10 62 967 1500 1949 2295 2061 1893 1811 1858 2159 2310 2406 2391 1718 53 0 0 0
0 0 0 0 3 17 4 0 7 4 5 9 20 22 37 808 1460 1966 2288 1996 1769 1827 1902 2295 2441 2431 2277 1166 0 0 0 0
0 0 157 253 366 250 91 2 0 0 29 16 14 24 11 683 1439 2000 2300 2051 1742 1805 2031 2479 2430 2384 1901 359 0 0 0 0
CIN
-153 -201 -185 -98 -148 -68 -68 -0 -0 -0 -0 -0 -0 -166 -125 -160 -214 -143 -103 -38 -33 -60 -87 -48 -33 -45 -64 -98 -63 -53 -39 -96
-130 -82 -64 -120 -19 -50 -29 -0 -0 -0 -247 -0 -0 -171 -159 -140 -196 -128 -85 -61 -43 -69 -218 -198 -163 -146 -122 -200 -137 -46 -51 -134
-67 -35 -51 -44 -54 -53 -4 -4 -12 -0 -0 -0 -0 -183 -180 -179 -164 -33 -89 -85 -48 -235 -211 -191 -162 -153 -165 -151 -166 -152 -135 -121
-69 -2 -110 -73 -99 -1 -34 -3 -20 -0 -0 -273 -51 -136 -156 -163 -183 -44 -72 -111 -74 -210 -199 -173 -143 -127 -135 -138 -128 -120 -93 -62
-31 -60 -124 -121 -29 -0 -65 -123 -116 -64 -140 -185 -198 -170 -167 -108 -126 -47 -8 -130 -35 -147 -178 -148 -136 -121 -204 -181 -128 -100 -76 -48
-0 -41 -30 -38 -32 -60 -150 -72 -167 -97 -145 -127 -150 -181 -168 -123 -87 -22 -17 -120 -30 -32 -192 -130 -170 -168 -216 -175 -114 -106 -90 -69
-0 -0 -41 -67 -0 -21 -60 -58 -162 -0 -135 -168 -159 -158 -169 -119 -85 -30 -17 -29 -34 -33 -206 -147 -196 -243 -194 -156 -112 -111 -87 -52
-0 -0 -97 -162 -155 -1 -3 -179 -129 -229 -272 -134 -167 -160 -164 -140 -91 -38 -23 -27 -43 -49 -197 -204 -371 -241 -193 -151 -126 -88 -56 -36
-0 -0 -111 -135 -190 -175 -184 -239 -184 -0 -236 -105 -171 -187 -158 -147 -87 -212 -23 -36 -35 -165 -161 -418 -381 -283 -202 -152 -122 -111 -59 -33
-0 -110 -63 -0 -0 -0 -57 -179 -285 -0 -197 -175 -203 -184 -137 -115 -121 -68 -54 -72 -76 -407 -385 -427 -365 -268 -183 -152 -128 -75 -36 -11
-0 -0 -0 -0 -161 -235 -158 -236 -139 -237 -78 -159 -149 -173 -201 -7 -98 -63 -98 -368 -386 -428 -466 -419 -336 -262 -180 -151 -100 -48 -16 -8
-0 -0 -0 -0 -21 -133 -109 -222 -171 -11 -103 -0 -173 -130 -210 -0 -0 -90 -378 -407 -410 -457 -394 -354 -324 -224 -190 -125 -63 -47 -23 -25
-0 -0 -0 -0 -0 -81 -67 -275 -0 -0 -115 -52 -111 -222 -180 -0 -245 -359 -443 -439 -442 -423 -341 -329 -305 -227 -165 -100 -75 -40 -64 -182
-0 -0 -0 -0 -141 -21 -0 -127 -97 -90 -159 -98 -114 -158 -163 -27 -355 -410 -440 -410 -396 -394 -358 -312 -259 -215 -150 -113 -72 -85 -167 -0
-0 -0 -0 -0 -0 -67 -33 -99 -0 -55 -78 -79 -99 -137 -446 -389 -392 -427 -449 -461 -389 -365 -335 -267 -236 -198 -157 -115 -117 -246 -0 -0
-0 -0 -0 -0 -0 -0 -0 -0 -0 -48 -80 -61 -129 -143 -424 -336 -371 -403 -398 -444 -387 -344 -274 -259 -231 -208 -159 -135 -196 -0 -0 -0
-0 -0 -0 -0 -0 -0 -0 -0 -0 -140 -152 -108 -103 -152 -330 -339 -376 -387 -414 -446 -365 -367 -282 -272 -246 -201 -202 -208 -120 -0 -0 -0
-0 -0 -0 -0 -236 -376 -96 -0 -15 -72 -135 -224 -37 -71 -268 -317 -388 -389 -414 -412 -414 -342 -273 -240 -231 -227 -224 -228 -0 -0 -0 -0
-0 -0 -87 -259 -279 -351 -234 -17 -0 -3 -313 -202 -41 -34 -42 -328 -374 -385 -425 -379 -397 -398 -359 -263 -266 -269 -269 -201 -0 -0 -0 -0
Wind_Speed
24 15 nan nan nan nan nan nan nan nan nan nan nan nan nan nan 10 14 12 13 14 10 11 11 15 19 21 20 21 20 22 18
28 25 nan 6 nan nan nan nan nan nan nan nan nan nan nan nan 9 17 14 14 12 11 11 11 15 19 20 19 19 18 18 14
30 17 22 nan nan nan nan nan nan nan nan nan nan nan nan nan 8 13 12 13 10 10 12 13 17 19 21 17 16 16 12 10
nan nan nan nan nan nan nan nan nan nan nan nan nan nan nan nan 6 13 13 10 13 12 13 13 15 16 18 14 15 11 9 6
36 nan nan nan nan nan nan nan nan nan nan nan nan nan nan nan nan 13 14 13 15 11 11 13 13 13 13 10 9 6 5 4
nan nan nan nan nan nan nan nan nan nan nan nan nan nan nan nan nan 11 13 9 10 8 8 10 10 9 7 4 6 5 4 4
nan nan nan nan nan nan nan nan nan nan nan nan nan nan nan nan nan nan 15 12 10 7 3 3 3 3 2 4 5 5 3 4
nan nan nan nan nan nan nan nan nan nan nan nan nan nan nan nan nan 11 7 7 5 7 1 3 5 3 5 5 4 3 4 3
nan nan 43 nan nan nan nan nan nan nan nan nan nan nan nan nan nan nan 6 4 2 4 4 4 6 8 8 6 5 3 4 5
nan nan 45 nan nan nan nan nan nan nan nan nan nan nan nan nan nan nan 6 6 4 1 2 4 9 8 10 7 6 5 5 6
nan nan nan nan nan nan nan nan nan nan nan nan nan nan nan nan nan nan 4 4 3 3 5 4 12 10 10 6 5 5 6 8
nan nan nan nan nan nan nan nan nan nan nan nan nan nan nan nan nan nan 8 9 5 11 9 4 10 8 8 6 5 6 9 10
nan nan nan nan nan 43 nan nan nan nan nan nan nan nan nan nan nan 15 10 8 9 12 6 3 9 7 6 5 6 6 5 nan
nan nan nan nan nan nan nan nan nan nan nan nan nan nan nan nan 16 15 15 13 11 13 8 6 5 6 6 5 4 6 nan nan
nan nan nan nan nan nan nan nan nan nan nan nan nan nan nan 19 16 8 8 9 12 14 12 8 5 4 7 3 7 8 nan nan
nan nan nan nan nan nan nan nan nan nan nan nan nan nan nan 21 18 11 8 10 17 17 10 7 6 4 5 8 7 nan nan nan
nan nan nan nan nan nan nan nan nan nan nan nan nan nan nan 24 18 10 6 13 16 12 9 11 9 7 6 8 nan nan nan nan
nan nan nan nan nan nan nan nan nan nan nan nan nan nan nan 24 18 14 8 14 18 14 13 14 9 8 6 6 nan nan nan nan
nan nan 68 63 49 37 nan nan nan nan nan nan nan nan nan 27 21 19 18 14 4 2 7 7 6 7 6 8 nan nan nan nan
Wind_Direction
221 222 nan nan nan nan nan nan nan nan nan nan nan nan nan nan 122 91 81 86 90 88 87 87 82 72 66 64 66 61 65 75
235 234 nan 235 nan nan nan nan nan nan nan nan nan nan nan nan 114 107 104 95 107 102 77 71 74 74 73 68 60 62 60 63
230 220 268 nan nan nan nan nan nan nan nan nan nan nan nan nan 104 107 103 96 107 107 94 74 76 72 68 62 53 49 52 64
nan nan nan nan nan nan nan nan nan nan nan nan nan nan nan nan 142 125 108 102 111 103 98 86 69 67 62 48 44 48 64 69
209 nan nan nan nan nan nan nan nan nan nan nan nan nan nan nan nan 138 145 149 128 129 99 79 68 60 60 44 41 63 47 66
nan nan nan nan nan nan nan nan nan nan nan nan nan nan nan nan nan 150 138 143 120 122 102 84 72 53 46 42 24 16 28 49
nan nan nan nan nan nan nan nan nan nan nan nan nan nan nan nan nan nan 172 171 138 116 107 123 74 65 332 352 355 2 3 26
nan nan nan nan nan nan nan nan nan nan nan nan nan nan nan nan nan 147 158 155 157 130 147 356 351 355 314 333 339 347 333 331
nan nan 232 nan nan nan nan nan nan nan nan nan nan nan nan nan nan nan 141 149 105 67 30 329 333 323 321 320 316 307 314 328
nan nan 225 nan nan nan nan nan nan nan nan nan nan nan nan nan nan nan 149 153 122 94 191 257 285 284 291 301 309 325 342 349
nan nan nan nan nan nan nan nan nan nan nan nan nan nan nan nan nan nan 105 101 129 240 265 265 290 310 297 310 318 342 357 357
nan nan nan nan nan nan nan nan nan nan nan nan nan nan nan nan nan nan 172 205 212 231 241 268 281 300 308 320 337 18 12 8
nan nan nan nan nan 246 nan nan nan nan nan nan nan nan nan nan nan 189 211 239 231 250 260 266 279 297 305 335 17 11 344 nan
nan nan nan nan nan nan nan nan nan nan nan nan nan nan nan nan 211 218 226 225 242 247 232 239 274 291 308 356 355 334 nan nan
nan nan nan nan nan nan nan nan nan nan nan nan nan nan nan 198 194 222 257 246 241 247 235 227 245 277 308 321 334 329 nan nan
nan nan nan nan nan nan nan nan nan nan nan nan nan nan nan 212 199 191 218 236 241 243 244 252 251 267 290 319 327 nan nan nan
nan nan nan nan nan nan nan nan nan nan nan nan nan nan nan 217 205 180 217 235 240 248 246 261 259 256 278 305 nan nan nan nan
nan nan nan nan nan nan nan nan nan nan nan nan nan nan nan 209 200 184 199 230 235 220 228 245 253 264 289 308 nan nan nan nan
nan nan 209 193 173 184 nan nan nan nan nan nan nan nan nan 201 193 172 186 176 194 311 251 259 267 273 283 307 nan nan nan nan